Location: Arrien
(43.3167°N, 0.1500°W)
Time: 22:50:24
(UTC+00:00)

GPS 2-04 Rocket1 - Pass Details

Date: 15 October 2021
Orbit: 412 x 536 km, 35.6° (Epoch: 04 December)

Event Time Altitude Azimuth Distance (km) Brightness Sun altitude
Rises 18:31:43 0° 257° (WSW) 2,534 7.9 -14.3°
Reaches altitude 10° 18:34:20 10° 241° (WSW) 1,626 6.2 -14.8°
Maximum altitude 18:37:09 20° 192° (SSW) 1,097 4.4 -15.3°
Enters shadow 18:39:03 14° 153° (SSE) 1,342 4.5 -15.6°
